Location: Unspecified
(0.0000°N, 0.0000°E)
Time: 05:52:47
(UTC+00:00)

DMSP 5D-2 F13 DEB - Visible Passes

Search period start: 15 December 2025 00:00
Search period end: 25 December 2025 00:00
Orbit: 741 x 778 km, 98.7° (Epoch: 13 December)

Date Brightness Start Highest point End Pass type
(mag) Time Alt. Az. Time Alt. Az. Time Alt. Az.
15 Dec ? 20:05:53 10° S 20:10:49 52° WSW 20:11:30 48° WNW visible
16 Dec ? 19:27:34 10° SSE 19:32:32 52° ENE 19:32:43 51° ENE visible
17 Dec ? 18:50:55 10° ESE 18:53:55 17° E 18:53:55 17° E visible
17 Dec ? 20:28:29 10° SSW 20:32:47 28° WSW 20:34:00 25° W visible
18 Dec ? 19:49:22 10° S 19:54:28 85° WSW 19:55:11 67° NNW visible
19 Dec ? 19:11:37 10° SE 19:16:09 32° ENE 19:16:21 32° ENE visible
19 Dec ? 20:51:49 10° SW 20:54:41 15° WSW 20:56:26 13° W visible
20 Dec ? 18:37:06 10° E 18:37:31 10° E 18:37:31 10° E visible
20 Dec ? 20:11:30 10° S 20:16:22 45° WSW 20:17:36 38° WNW visible
21 Dec ? 19:32:57 10° SSE 19:38:00 60° ENE 19:38:44 54° NE visible
22 Dec ? 18:55:57 10° ESE 18:59:38 20° ENE 18:59:52 20° ENE visible
22 Dec ? 20:34:05 10° SSW 20:38:11 25° WSW 20:39:56 20° WNW visible
23 Dec ? 19:54:42 10° S 19:59:48 74° WSW 20:01:03 51° NW visible
24 Dec ? 19:16:43 10° SE 19:21:25 36° ENE 19:22:09 35° ENE visible
24 Dec ? 20:57:35 10° SW 20:59:57 13° WSW 21:02:14 10° WNW visible
